Weather History for KUIN - February, 2014

Change the Weather History Date:

Thursday, February 13, 2014

  Actual Average Record
Temperature  
Mean Temperature 26 °F 30 °F  
Max Temperature 40 °F 38 °F 70 °F (1921)
Min Temperature 12 °F 22 °F -29 °F (1905)
Degree Days  
Heating Degree Days 39 35  
Month to date heating degree days 701 472  
Since 1 July heating degree days 4326 3858  
Cooling Degree Days 0 0  
Month to date cooling degree days 0 0  
Year to date cooling degree days 0 0  
Moisture  
Dew Point 18 °F    
Average Humidity 67    
Maximum Humidity 78    
Minimum Humidity 56    
Precipitation  
Precipitation 0.00 in 0.07 in 1.22 in (2005)
Month to date precipitation 0.46 0.78  
Year to date precipitation 1.16 2.30  
Sea Level Pressure  
Sea Level Pressure 29.81 in    
Wind  
Wind Speed 11 mph (SW)    
Max Wind Speed 24 mph    
Max Gust Speed 32 mph    
Visibility 10 miles    
Events      
T = Trace of Precipitation, MM = Missing Value Source: NWS Daily Summary

Daily Weather History Graph

Daily Weather History Graph

Search for Another Location

Airport or City:

Trip Planner

Search our weather history database for the weather conditions in past years. The results will help you decide how hot, cold, wet, or windy it might be!

Date:

Astronomy

Feb. 13, 2014 Rise Set
Actual Time 7:00 AM CST 5:38 PM CST
Civil Twilight 6:32 AM CST 6:06 PM CST
Nautical Twilight 6:00 AM CST 6:38 PM CST
Astronomical Twilight 5:29 AM CST 7:09 PM CST
Moon 4:47 PM CST (2/13) 5:53 AM CST (2/13)
Length of Visible Light 11h 34m
Length of Day
10h 38m
Waxing Gibbous, 99% of the Moon is Illuminated
Feb 13
Waxing Gibbous
Feb 14
Full
Feb 22
Last Quarter
Mar 1
New
Mar 8
First Quarter

Hourly Weather History & Observations

Time (CST) Temp. Windchill Dew Point Humidity Pressure Visibility Wind Dir Wind Speed Gust Speed Precip Events Conditions
12:54 AM 12.9 °F 2.6 °F 3.9 °F 67% 29.99 in 10.0 mi SSE 6.9 mph - N/A   Clear
1:54 AM 18.0 °F 9.8 °F 6.1 °F 60% 29.98 in 10.0 mi SSE 5.8 mph - N/A   Clear
2:54 AM 17.1 °F 7.6 °F 6.1 °F 62% 29.96 in 10.0 mi SSE 6.9 mph - N/A   Clear
3:54 AM 19.0 °F 12.3 °F 7.0 °F 59% 29.93 in 10.0 mi SSW 4.6 mph - N/A   Clear
4:54 AM 18.0 °F 7.7 °F 7.0 °F 62% 29.93 in 10.0 mi South 8.1 mph - N/A   Clear
5:54 AM 19.9 °F 11.1 °F 7.0 °F 57% 29.91 in 10.0 mi South 6.9 mph - N/A   Clear
6:54 AM 18.0 °F 7.7 °F 7.0 °F 62% 29.90 in 10.0 mi SSW 8.1 mph - N/A   Scattered Clouds
7:54 AM 19.9 °F 8.6 °F 7.0 °F 57% 29.88 in 10.0 mi South 10.4 mph - N/A   Partly Cloudy
8:54 AM 21.9 °F 11.0 °F 10.0 °F 60% 29.86 in 10.0 mi SSW 10.4 mph - N/A   Partly Cloudy
9:54 AM 26.1 °F 14.0 °F 16.0 °F 66% 29.83 in 10.0 mi SSW 15.0 mph - N/A   Clear
10:54 AM 30.0 °F 19.1 °F 19.9 °F 66% 29.83 in 10.0 mi SW 15.0 mph - N/A   Scattered Clouds
11:54 AM 34.0 °F 23.4 °F 24.1 °F 67% 29.78 in 9.0 mi SW 17.3 mph 25.3 mph N/A   Clear
12:54 PM 36.0 °F 25.3 °F 25.0 °F 64% 29.74 in 10.0 mi WSW 19.6 mph 32.2 mph N/A   Clear
1:54 PM 37.9 °F 29.2 °F 26.1 °F 62% 29.70 in 10.0 mi WSW 15.0 mph - N/A   Clear
2:54 PM 39.0 °F 30.6 °F 26.1 °F 60% 29.69 in 10.0 mi WSW 15.0 mph - N/A   Clear
3:54 PM 39.0 °F 31.0 °F 27.0 °F 62% 29.68 in 10.0 mi WSW 13.8 mph - N/A   Clear
4:54 PM 39.0 °F 31.4 °F 27.0 °F 62% 29.70 in 10.0 mi West 12.7 mph - N/A   Clear
5:54 PM 37.9 °F 28.9 °F 27.0 °F 65% 29.71 in 10.0 mi WSW 16.1 mph - N/A   Clear
6:54 PM 37.0 °F 28.9 °F 27.0 °F 67% 29.72 in 10.0 mi WSW 12.7 mph - N/A   Clear
7:54 PM 36.0 °F 27.1 °F 27.0 °F 70% 29.73 in 10.0 mi WSW 13.8 mph - N/A   Clear
8:54 PM 35.1 °F 26.9 °F 27.0 °F 72% 29.75 in 10.0 mi West 11.5 mph - N/A   Clear
9:54 PM 33.1 °F 25.5 °F 26.1 °F 75% 29.76 in 10.0 mi WNW 9.2 mph - N/A   Clear
10:54 PM 28.9 °F 21.1 °F 23.0 °F 78% 29.77 in 10.0 mi NW 8.1 mph - N/A   Clear
11:54 PM 23.0 °F 13.1 °F 18.0 °F 81% 29.77 in 10.0 mi NNE 9.2 mph - N/A   Clear